STARLINK-32327, 61641

Orbit data source: Space-Track

STARLINK-32327, 61641 is a payload satellite owned by SpaceX/Seattle (US) in LEO that was launched on Wed, 23 Oct 2024 UTC via an FALCON 9 launch vehicle from the Air Force Eastern Test Range (AFETR). Payload-class satellites include a variety of spacecraft equipped with specific instruments for various scientific and technological missions. These include communications satellites like Starlink; space stations such as the ISS; scientific satellites like the Hubble; Earth observation satellites from companies like Planet Labs, Umbra, and HawkEye 360; GPS; miniature CubeSats for education and research; and military/defense satellites.

Loading next visibility...
Identifier
61641, 2024-191W
Orbit
LEO
Last TLE update
17 hours ago
Origin
Manufacturer
SpaceX/Seattle
Mission
Operational Commercial Communications
Bus & Motor
STARLINK V2M, Unknown motor
Mass
730 kg wet, ~700 kg dry
Launch date (UTC)
2024-10-23 (8 months ago)
Launch vehicle
FALCON 9
Launch site
Air Force Eastern Test Range (AFETR)
Object type
Payload
Rocket body
Debris
Shape & HBR
Box + 2 Pan, 29 m
Radar Cross Section
36.964 m², Large (>1 m²)

Expand to show TLE details & history

TLE from 17 hours ago
0 STARLINK-32327
1 61641U 24191W   25169.43167233  .00001571  00000-0  66566-4 0  9994
2 61641  43.0006 206.7092 0001526 277.2387  82.8291 15.27593368 37121
Epoch: 2025-06-18T10:21Z
TLE epoch observation values (Epoch: 2025-06-18T10:21:36.489Z)
Latitude
-0.00002°
Longitude
144.39334°
Altitude
482.654 km
Speed
7.626 km/s
True Right ascension
13h 46m 50s
True Declination
0° 00' 00"
Sunlit
Object was in full shadow at epoch
Visualization orbit readout
Latitude
-42.77602°
Longitude
41.0732°
Altitude
495.2 km
Speed
7.618 km/s
Apparent Right ascension
04h 30m 20s
Apparent Declination
-47° 26' 19"
Sunlit
Object is in daylight
Visualization observer readout
Local Sidereal Time
14:01:54
Azimuth
241.8° WSW
Elevation
-62.416°
Doppler factor
1
Orbital elements
Apogee altitude
486.001 km
Perigee altitude
483.907 km
Semi-major axis
6,863.091 km
Eccentricity
0.00015
Inclination
43.0006°
RAAN
206.7092°
Arg. of periapsis
277.2387°
True anomaly
Unknown
Mean anomaly
82.8291°
Eccentric anomaly
Unknown
Mean motion
3.81736 °/min
Orbital period
94.31 mins
BSTAR
0.000066566
Loading maneuver chart data...
Loading SW <> Apogee altitude chart data...
Loading historical data...
Loading historical data...
Loading historical data...
Loading historical data...
Loading historical data...
Loading historical data...
Loading historical data...

STARLINK-32327 Visibility forecast

Observer location: undefined°, undefined°

Span
Click to sort rows by Start time (UTC) header in descending order
Start Az.
Max El. time (UTC)
Max El. Az.
Max El.
End time (UTC)
End Az.
6 mins2025-06-19 05:22:57.608Z204.555° SW2025-06-19 05:25:57.608Z144.078° SSE24.985°2025-06-19 05:28:57.608Z88.744° E
6 mins2025-06-19 07:01:57.608Z257.786° W2025-06-19 07:04:57.608Z45.547° ENE42.878°2025-06-19 07:07:57.608Z70.818° E
5 mins2025-06-19 08:41:57.608Z296.935° NW2025-06-19 08:43:57.608Z15.605° NNE37.735°2025-06-19 08:46:57.608Z77.347° E
5 mins2025-06-19 10:20:57.608Z287.116° WNW2025-06-19 10:22:57.608Z144.12° SSE44.863°2025-06-19 10:25:57.608Z110.907° ESE
4 mins2025-06-19 11:59:57.608Z247.874° W2025-06-19 12:01:57.608Z203.726° SW19.627°2025-06-19 12:03:57.608Z168.613° S
|